Location: Unspecified
(0.0000°N, 0.0000°E)
Time: 05:01:17
(UTC+00:00)

Explorer 7 - Pass Details

Date: 06 October 2020
Orbit: 484 x 678 km, 50.3° (Epoch: 28 October)

Event Time Altitude Azimuth Distance (km) Brightness Sun altitude
Rises 06:34:14 0° 333° (NNW) 3,011 10.3 11.5°
Reaches altitude 10° 06:36:41 10° 339° (NNW) 2,092 9.6 12.1°
Maximum altitude 06:41:21 47° 53° (NE) 875 8.6 13.3°
Drops below altitude 10° 06:45:52 10° 127° (SE) 2,030 10.9 14.4°
Sets 06:48:12 0° 132° (SE) 2,912 11.4 15.0°
